Flag for U.S.A. Weather past 2 weeks in Tuba City, Arizona, U.S.A.

Now
38 °F

Clear.


Feels Like: 34 °F
Forecast: 40 / 77 °F
Wind: 5 mph from Northeast

Location: Grand Canyon National Park Airport

Current Time: Mar 28, 2015 at 10:34:44 PM

Latest Report: Mar 28, 2015 at 9:54 PM


Visibility: 10 mi

Pressure: 30.13 "Hg

Humidity: 46%

Dew point: 19 °F

Location of Tuba CityLocation

Historic Weather in Tuba City — Graph

°F

Tuba City temperature yesterday

Maximum temperature yesterday: 72 °F (at 5:54 PM)
Minimum temperature yesterday: 23 °F (at 5:54 AM)
Average temperature yesterday: 47 °F

Past Weeks' High & Low Weather Summary

 TemperatureHumidityPressure
High72 °F (Mar 27, 5:54 PM)93% (Mar 19, 7:54 AM)30.35 "Hg (Mar 19, 7:54 AM)
Low20 °F (Mar 20, 4:54 AM)8% (Mar 27, 3:54 PM)29.91 "Hg (Mar 19, 5:54 AM)
Average45 °F47%30.11 "Hg
* Reported Mar 13 8:54 PM — Mar 28 8:54 PM, Tuba City, Weather by CustomWeather, © 2015

Note: Actual official high and low records may vary slightly from our data, if they occured in-between our weather recording intervals... More about our weather records

Advertising

Tuba City weather history for previous 24 hours

 ConditionsComfort  
Time TempWeatherWind HumidityBarometerVisibility
8:54 PM
Sat, Mar 28
42 °FClear.No wind38%30.17 "Hg10 mi
7:54 PM60 °FClear.3 mph17%30.14 "Hg10 mi
6:54 PM68 °FSunny.8 mph12%30.10 "Hg10 mi
5:54 PM71 °FSunny.12 mph11%30.07 "Hg10 mi
4:54 PM72 °FSunny.12 mph13%30.08 "Hg10 mi
3:54 PM72 °FSunny.14 mph13%30.09 "Hg10 mi
2:54 PM71 °FSunny.16 mph14%30.12 "Hg10 mi
1:54 PM68 °FSunny.13 mph14%30.15 "Hg10 mi
12:54 PM67 °FSunny.8 mph15%30.17 "Hg10 mi
11:54 AM65 °FSunny.7 mph17%30.18 "Hg10 mi
10:54 AM63 °FSunny.12 mph20%30.18 "Hg10 mi
9:54 AM59 °FSunny.5 mph25%30.19 "Hg10 mi
8:54 AM41 °FSunny.No wind53%30.23 "Hg10 mi
7:54 AM27 °FSunny.No wind75%30.24 "Hg10 mi
6:54 AM25 °FClear.No wind78%30.18 "Hg10 mi
5:54 AM26 °FClear.No wind74%30.16 "Hg10 mi
4:54 AM26 °FClear.3 mph74%30.16 "Hg10 mi
3:54 AM27 °FClear.No wind72%30.15 "Hg10 mi
2:54 AM27 °FClear.No wind72%30.16 "Hg10 mi
1:54 AM29 °FClear.No wind69%30.16 "Hg10 mi
12:54 AM31 °FClear.No wind64%30.17 "Hg10 mi
11:54 PM
Fri, Mar 27
32 °FClear.No wind61%30.18 "Hg10 mi
10:54 PM35 °FClear.No wind56%30.17 "Hg10 mi
Weather by CustomWeather, © 2015

See weather overviewHow to use our weather pages